QPF
0.04 0.04 0.04 0.05 0.05 0.04 0.04 0.04 0.03 0.02 0.01 0.02 0.03 0.03 0.03 0.04 0.04 0.04 0.04 0.04 0.05 0.04 0.04 0.03 0.03 0.02 0.01 0.01 0.01 0.01 0.01 0.01 0.02 0.03 0.02 0.02 0.01 0.01
0.06 0.04 0.03 0.03 0.03 0.03 0.04 0.04 0.04 0.04 0.02 0.02 0.02 0.02 0.02 0.03 0.05 0.04 0.04 0.04 0.04 0.05 0.06 0.06 0.04 0.02 0.02 0.02 0.02 0.02 0.01 0.01 0.02 0.03 0.02 0.02 0.01 0.02
0.06 0.04 0.03 0.03 0.03 0.03 0.04 0.05 0.05 0.05 0.03 0.02 0.02 0.02 0.03 0.05 0.06 0.06 0.05 0.04 0.05 0.06 0.06 0.05 0.04 0.03 0.03 0.02 0.02 0.02 0.02 0.02 0.02 0.03 0.03 0.02 0.02 0.02
0.04 0.04 0.03 0.03 0.03 0.04 0.05 0.06 0.05 0.04 0.04 0.03 0.03 0.03 0.03 0.05 0.06 0.06 0.05 0.04 0.04 0.05 0.04 0.03 0.03 0.02 0.02 0.02 0.02 0.03 0.03 0.03 0.03 0.03 0.03 0.02 0.02 0.02
0.04 0.05 0.05 0.05 0.05 0.05 0.06 0.05 0.04 0.04 0.03 0.03 0.04 0.04 0.03 0.04 0.05 0.05 0.06 0.05 0.04 0.04 0.03 0.03 0.02 0.02 0.02 0.02 0.02 0.03 0.03 0.04 0.04 0.03 0.03 0.02 0.02 0.02
0.04 0.05 0.07 0.08 0.06 0.07 0.07 0.05 0.04 0.05 0.04 0.03 0.03 0.04 0.03 0.04 0.04 0.04 0.05 0.06 0.04 0.04 0.04 0.04 0.04 0.04 0.04 0.04 0.03 0.03 0.03 0.03 0.04 0.05 0.04 0.03 0.02 0.02
0.06 0.08 0.08 0.07 0.08 0.08 0.07 0.06 0.05 0.05 0.06 0.06 0.05 0.04 0.04 0.04 0.04 0.05 0.05 0.06 0.05 0.05 0.04 0.04 0.03 0.03 0.03 0.04 0.03 0.02 0.02 0.04 0.04 0.05 0.04 0.03 0.04 0.03
0.07 0.08 0.06 0.06 0.05 0.05 0.04 0.04 0.04 0.04 0.04 0.05 0.05 0.03 0.02 0.04 0.05 0.05 0.06 0.06 0.04 0.04 0.05 0.04 0.03 0.03 0.04 0.06 0.06 0.04 0.03 0.04 0.04 0.04 0.04 0.05 0.06 0.05
0.06 0.06 0.05 0.04 0.04 0.03 0.04 0.05 0.05 0.04 0.04 0.04 0.04 0.02 0.02 0.02 0.04 0.05 0.07 0.07 0.05 0.05 0.07 0.06 0.05 0.04 0.06 0.09 0.09 0.07 0.06 0.05 0.05 0.04 0.04 0.04 0.06 0.06
0.04 0.04 0.04 0.03 0.03 0.04 0.06 0.07 0.06 0.05 0.05 0.04 0.03 0.03 0.03 0.02 0.03 0.03 0.04 0.06 0.06 0.06 0.05 0.05 0.05 0.06 0.06 0.09 0.11 0.09 0.07 0.07 0.07 0.06 0.05 0.05 0.05 0.05
0.04 0.03 0.02 0.02 0.03 0.05 0.04 0.05 0.05 0.05 0.05 0.04 0.03 0.03 0.03 0.03 0.02 0.02 0.02 0.03 0.05 0.05 0.04 0.03 0.03 0.05 0.06 0.09 0.10 0.09 0.08 0.08 0.08 0.07 0.06 0.05 0.05 0.05
0.04 0.03 0.01 0.02 0.03 0.04 0.04 0.03 0.02 0.02 0.02 0.02 0.02 0.03 0.03 0.03 0.02 0.02 0.02 0.02 0.03 0.04 0.04 0.04 0.03 0.05 0.06 0.07 0.09 0.08 0.07 0.08 0.08 0.08 0.07 0.06 0.05 0.05
0.02 0.02 0.02 0.02 0.02 0.03 0.03 0.02 0.02 0.02 0.02 0.02 0.02 0.01 0.01 0.01 0.02 0.02 0.03 0.04 0.05 0.05 0.05 0.06 0.05 0.05 0.05 0.04 0.05 0.05 0.05 0.06 0.06 0.06 0.06 0.06 0.05 0.05
0.02 0.02 0.02 0.02 0.02 0.02 0.02 0.02 0.03 0.02 0.02 0.02 0.01 0.02 0.02 0.02 0.02 0.02 0.03 0.03 0.04 0.04 0.05 0.07 0.06 0.05 0.05 0.05 0.05 0.05 0.05 0.05 0.05 0.05 0.05 0.07 0.06 0.05
0.02 0.03 0.02 0.02 0.02 0.02 0.02 0.02 0.02 0.01 0.01 0.01 0.01 0.01 0.01 0.02 0.02 0.02 0.02 0.03 0.03 0.03 0.04 0.05 0.07 0.06 0.05 0.05 0.05 0.05 0.05 0.05 0.06 0.06 0.06 0.07 0.08 0.06
0.03 0.02 0.01 0.01 0.01 0.01 0.01 0.01 0.01 0.01 0.00 0.00 0.00 0.00 0.00 0.00 0.01 0.01 0.01 0.02 0.02 0.03 0.04 0.04 0.04 0.05 0.06 0.06 0.06 0.05 0.05 0.05 0.05 0.06 0.07 0.07 0.06 0.07
0.02 0.01 0.01 0.01 0.01 0.01 0.01 0.01 0.00 0.00 0.00 0.00 0.00 0.00 0.00 0.00 0.00 0.01 0.01 0.01 0.02 0.02 0.03 0.04 0.04 0.05 0.05 0.05 0.06 0.06 0.05 0.04 0.04 0.05 0.06 0.07 0.07 0.06
0.01 0.01 0.01 0.01 0.00 0.00 0.00 0.00 0.00 0.00 0.00 0.00 0.00 0.00 0.00 0.00 0.01 0.01 0.01 0.02 0.02 0.03 0.03 0.03 0.03 0.03 0.04 0.05 0.05 0.06 0.05 0.04 0.04 0.05 0.06 0.06 0.06 0.06
0.01 0.00 0.00 0.00 0.00 0.00 0.00 0.00 0.00 0.00 0.00 0.00 0.00 0.00 0.01 0.01 0.01 0.01 0.01 0.02 0.03 0.02 0.02 0.02 0.02 0.03 0.03 0.04 0.04 0.03 0.03 0.04 0.04 0.04 0.05 0.04 0.04 0.04
0.01 0.00 0.00 0.00 0.00 0.00 0.00 0.00 0.00 0.00 0.01 0.01 0.00 0.01 0.01 0.01 0.01 0.01 0.01 0.01 0.01 0.01 0.01 0.01 0.01 0.02 0.03 0.04 0.03 0.02 0.02 0.02 0.03 0.03 0.04 0.04 0.04 0.04
0.01 0.01 0.00 0.00 0.00 0.00 0.01 0.01 0.01 0.01 0.01 0.01 0.00 0.01 0.01 0.02 0.01 0.02 0.02 0.02 0.01 0.01 0.01 0.01 0.01 0.02 0.03 0.05 0.04 0.03 0.03 0.03 0.03 0.03 0.03 0.03 0.04 0.04
0.01 0.01 0.01 0.00 0.01 0.01 0.01 0.01 0.00 0.01 0.01 0.01 0.01 0.01 0.01 0.01 0.01 0.01 0.02 0.02 0.02 0.01 0.01 0.01 0.01 0.02 0.02 0.03 0.02 0.02 0.02 0.03 0.04 0.05 0.05 0.04 0.04 0.03
0.01 0.01 0.01 0.01 0.01 0.01 0.01 0.01 0.01 0.01 0.01 0.01 0.01 0.01 0.01 0.01 0.01 0.01 0.02 0.02 0.02 0.02 0.02 0.01 0.01 0.01 0.01 0.02 0.03 0.03 0.03 0.03 0.04 0.05 0.06 0.05 0.04 0.03
MSLP
1007.68 1007.94 1008.29 1008.67 1009.02 1009.30 1009.45 1009.46 1009.34 1009.09 1008.76 1008.40 1008.04 1007.73 1007.50 1007.36 1007.30 1007.33 1007.42 1007.56 1007.73 1007.90 1008.07 1008.20 1008.30 1008.35 1008.35 1008.31 1008.22 1008.11 1007.97 1007.84 1007.71 1007.58 1007.47 1007.35 1007.22 1007.07
1006.69 1006.93 1007.27 1007.66 1008.05 1008.39 1008.63 1008.75 1008.75 1008.63 1008.43 1008.17 1007.91 1007.67 1007.47 1007.33 1007.25 1007.23 1007.24 1007.29 1007.36 1007.43 1007.49 1007.54 1007.56 1007.55 1007.51 1007.43 1007.34 1007.22 1007.10 1006.98 1006.87 1006.77 1006.67 1006.56 1006.43 1006.28
1005.82 1006.02 1006.33 1006.72 1007.13 1007.51 1007.83 1008.04 1008.15 1008.16 1008.10 1007.97 1007.83 1007.68 1007.54 1007.42 1007.33 1007.26 1007.20 1007.15 1007.10 1007.05 1006.99 1006.92 1006.85 1006.76 1006.66 1006.56 1006.45 1006.35 1006.25 1006.16 1006.09 1006.02 1005.96 1005.88 1005.77 1005.61
1005.12 1005.28 1005.55 1005.91 1006.32 1006.71 1007.07 1007.35 1007.55 1007.68 1007.73 1007.74 1007.71 1007.66 1007.60 1007.52 1007.43 1007.33 1007.21 1007.06 1006.90 1006.73 1006.55 1006.37 1006.20 1006.04 1005.90 1005.77 1005.65 1005.56 1005.49 1005.45 1005.42 1005.40 1005.38 1005.33 1005.24 1005.09
1004.61 1004.73 1004.96 1005.28 1005.64 1006.02 1006.37 1006.68 1006.93 1007.13 1007.28 1007.39 1007.47 1007.51 1007.53 1007.50 1007.44 1007.32 1007.16 1006.95 1006.71 1006.44 1006.17 1005.90 1005.66 1005.44 1005.25 1005.11 1005.00 1004.93 1004.89 1004.89 1004.90 1004.93 1004.95 1004.93 1004.86 1004.70
1004.28 1004.36 1004.54 1004.79 1005.09 1005.41 1005.73 1006.01 1006.27 1006.50 1006.70 1006.88 1007.03 1007.16 1007.24 1007.28 1007.24 1007.14 1006.97 1006.73 1006.44 1006.13 1005.80 1005.49 1005.20 1004.96 1004.76 1004.62 1004.53 1004.49 1004.48 1004.51 1004.57 1004.62 1004.66 1004.66 1004.58 1004.40
1004.08 1004.12 1004.24 1004.43 1004.65 1004.88 1005.11 1005.34 1005.56 1005.77 1005.97 1006.18 1006.38 1006.55 1006.70 1006.78 1006.79 1006.73 1006.57 1006.35 1006.06 1005.74 1005.41 1005.10 1004.82 1004.59 1004.42 1004.30 1004.24 1004.23 1004.26 1004.32 1004.39 1004.46 1004.50 1004.48 1004.37 1004.14
1003.94 1003.96 1004.03 1004.14 1004.26 1004.40 1004.54 1004.67 1004.81 1004.97 1005.14 1005.34 1005.54 1005.74 1005.91 1006.04 1006.09 1006.07 1005.96 1005.77 1005.52 1005.24 1004.96 1004.70 1004.47 1004.30 1004.18 1004.12 1004.11 1004.13 1004.19 1004.26 1004.33 1004.39 1004.40 1004.34 1004.17 1003.86
1003.83 1003.82 1003.85 1003.89 1003.93 1003.97 1004.00 1004.04 1004.09 1004.16 1004.28 1004.43 1004.61 1004.80 1004.98 1005.13 1005.21 1005.22 1005.16 1005.03 1004.85 1004.64 1004.44 1004.26 1004.12 1004.03 1004.00 1004.01 1004.06 1004.13 1004.21 1004.29 1004.35 1004.37 1004.33 1004.20 1003.95 1003.56
1003.70 1003.69 1003.69 1003.68 1003.66 1003.61 1003.55 1003.49 1003.45 1003.44 1003.48 1003.57 1003.70 1003.86 1004.02 1004.15 1004.25 1004.29 1004.26 1004.19 1004.08 1003.96 1003.85 1003.77 1003.75 1003.76 1003.83 1003.93 1004.04 1004.16 1004.27 1004.35 1004.38 1004.36 1004.25 1004.05 1003.72 1003.24
1003.56 1003.55 1003.54 1003.50 1003.43 1003.33 1003.21 1003.07 1002.95 1002.87 1002.83 1002.85 1002.92 1003.02 1003.14 1003.25 1003.33 1003.37 1003.37 1003.33 1003.29 1003.24 1003.23 1003.26 1003.34 1003.47 1003.64 1003.83 1004.02 1004.19 1004.32 1004.40 1004.41 1004.34 1004.19 1003.92 1003.52 1002.96
1003.42 1003.42 1003.41 1003.37 1003.28 1003.14 1002.98 1002.79 1002.62 1002.48 1002.38 1002.33 1002.33 1002.37 1002.43 1002.49 1002.53 1002.55 1002.55 1002.54 1002.54 1002.56 1002.63 1002.75 1002.93 1003.16 1003.43 1003.70 1003.96 1004.18 1004.34 1004.43 1004.43 1004.33 1004.14 1003.83 1003.38 1002.79
1003.30 1003.31 1003.31 1003.26 1003.17 1003.02 1002.84 1002.63 1002.42 1002.24 1002.09 1001.99 1001.93 1001.91 1001.90 1001.90 1001.90 1001.89 1001.87 1001.87 1001.89 1001.95 1002.08 1002.28 1002.54 1002.86 1003.21 1003.56 1003.88 1004.15 1004.35 1004.45 1004.45 1004.35 1004.14 1003.81 1003.36 1002.77
1003.21 1003.23 1003.22 1003.18 1003.08 1002.93 1002.73 1002.51 1002.29 1002.08 1001.90 1001.75 1001.64 1001.57 1001.51 1001.46 1001.41 1001.36 1001.33 1001.32 1001.35 1001.45 1001.62 1001.88 1002.21 1002.59 1003.01 1003.42 1003.80 1004.12 1004.35 1004.48 1004.50 1004.41 1004.21 1003.90 1003.48 1002.93
1003.15 1003.15 1003.14 1003.08 1002.97 1002.81 1002.60 1002.37 1002.13 1001.90 1001.69 1001.52 1001.38 1001.26 1001.16 1001.07 1000.99 1000.92 1000.88 1000.87 1000.92 1001.05 1001.26 1001.57 1001.94 1002.38 1002.85 1003.32 1003.74 1004.10 1004.37 1004.53 1004.58 1004.52 1004.36 1004.09 1003.72 1003.24
1003.10 1003.08 1003.03 1002.93 1002.79 1002.60 1002.37 1002.12 1001.86 1001.61 1001.39 1001.20 1001.03 1000.90 1000.78 1000.67 1000.58 1000.51 1000.48 1000.49 1000.57 1000.73 1000.99 1001.33 1001.75 1002.23 1002.74 1003.25 1003.71 1004.10 1004.40 1004.60 1004.69 1004.67 1004.55 1004.33 1004.03 1003.63
1003.05 1002.98 1002.87 1002.72 1002.53 1002.29 1002.02 1001.73 1001.45 1001.18 1000.94 1000.73 1000.55 1000.41 1000.29 1000.19 1000.12 1000.08 1000.07 1000.12 1000.25 1000.46 1000.76 1001.15 1001.62 1002.13 1002.68 1003.21 1003.70 1004.12 1004.44 1004.67 1004.79 1004.82 1004.74 1004.59 1004.35 1004.04
1002.98 1002.83 1002.65 1002.43 1002.17 1001.87 1001.54 1001.21 1000.89 1000.59 1000.33 1000.11 999.94 999.80 999.70 999.62 999.58 999.58 999.63 999.74 999.93 1000.20 1000.56 1001.00 1001.50 1002.06 1002.62 1003.18 1003.68 1004.12 1004.47 1004.72 1004.87 1004.93 1004.89 1004.79 1004.61 1004.37
1002.85 1002.63 1002.37 1002.07 1001.74 1001.37 1000.99 1000.61 1000.25 999.93 999.65 999.42 999.24 999.11 999.03 998.99 998.99 999.05 999.15 999.33 999.58 999.92 1000.34 1000.83 1001.38 1001.96 1002.55 1003.12 1003.64 1004.09 1004.45 1004.72 1004.89 1004.97 1004.97 1004.90 1004.77 1004.59
1002.65 1002.36 1002.03 1001.66 1001.26 1000.84 1000.41 999.99 999.61 999.26 998.97 998.73 998.55 998.43 998.36 998.35 998.39 998.49 998.65 998.89 999.20 999.60 1000.07 1000.61 1001.20 1001.82 1002.43 1003.02 1003.55 1004.00 1004.38 1004.65 1004.84 1004.94 1004.97 1004.93 1004.83 1004.69
1002.36 1002.01 1001.63 1001.21 1000.76 1000.31 999.85 999.42 999.02 998.66 998.36 998.12 997.94 997.82 997.76 997.75 997.81 997.94 998.14 998.42 998.78 999.23 999.75 1000.33 1000.95 1001.60 1002.23 1002.84 1003.38 1003.85 1004.24 1004.53 1004.73 1004.85 1004.90 1004.89 1004.82 1004.71
1001.99 1001.59 1001.16 1000.71 1000.25 999.78 999.33 998.90 998.51 998.16 997.86 997.62 997.43 997.30 997.23 997.22 997.28 997.41 997.63 997.93 998.31 998.79 999.34 999.96 1000.61 1001.29 1001.95 1002.58 1003.15 1003.64 1004.05 1004.36 1004.59 1004.73 1004.81 1004.81 1004.77 1004.69
1001.50 1001.06 1000.61 1000.15 999.70 999.25 998.82 998.42 998.05 997.73 997.44 997.20 997.01 996.87 996.78 996.74 996.78 996.89 997.09 997.39 997.79 998.28 998.85 999.50 1000.18 1000.89 1001.59 1002.25 1002.86 1003.38 1003.82 1004.17 1004.43 1004.61 1004.71 1004.75 1004.74 1004.69
Thickness
5752 5749 5747 5745 5743 5741 5739 5735 5728 5721 5721 5725 5727 5729 5728 5727 5727 5725 5723 5722 5721 5720 5718 5716 5714 5712 5710 5709 5708 5706 5705 5703 5702 5701 5700 5698 5697 5696
5749 5746 5744 5742 5740 5738 5736 5733 5730 5724 5719 5722 5724 5725 5725 5724 5723 5721 5720 5720 5718 5717 5714 5712 5711 5709 5707 5706 5705 5703 5702 5700 5699 5697 5696 5695 5694 5693
5746 5743 5741 5739 5737 5735 5733 5730 5727 5724 5718 5719 5721 5722 5720 5719 5718 5717 5716 5715 5714 5713 5711 5709 5707 5706 5704 5703 5702 5700 5699 5697 5696 5695 5693 5692 5691 5689
5742 5739 5737 5736 5733 5731 5728 5726 5724 5722 5718 5714 5715 5715 5715 5714 5713 5713 5712 5711 5710 5709 5708 5706 5704 5702 5701 5699 5699 5697 5696 5694 5693 5692 5690 5689 5687 5686
5739 5736 5734 5732 5728 5726 5724 5722 5720 5720 5716 5712 5710 5710 5710 5709 5707 5707 5707 5705 5705 5704 5703 5702 5700 5699 5698 5697 5695 5694 5692 5691 5689 5688 5686 5685 5684 5682
5737 5735 5732 5729 5725 5723 5721 5718 5717 5714 5711 5708 5705 5704 5703 5703 5701 5699 5698 5699 5699 5699 5698 5697 5696 5695 5694 5693 5692 5691 5689 5687 5685 5684 5682 5681 5679 5677
5733 5731 5729 5727 5725 5722 5720 5716 5713 5709 5706 5703 5700 5698 5697 5696 5694 5694 5692 5692 5692 5692 5691 5691 5690 5689 5689 5689 5688 5687 5685 5683 5681 5679 5678 5677 5675 5673
5727 5726 5725 5723 5722 5720 5718 5716 5712 5707 5702 5699 5696 5694 5693 5692 5691 5690 5687 5685 5683 5686 5684 5684 5684 5684 5684 5684 5684 5683 5682 5679 5677 5675 5673 5672 5670 5668
5723 5722 5721 5720 5717 5715 5713 5711 5708 5707 5704 5699 5694 5692 5691 5690 5688 5686 5683 5681 5680 5682 5679 5677 5678 5677 5679 5680 5680 5679 5677 5675 5673 5671 5668 5667 5665 5663
5719 5717 5715 5713 5712 5710 5707 5704 5702 5701 5700 5697 5694 5693 5692 5689 5686 5684 5681 5678 5677 5677 5675 5671 5671 5671 5674 5674 5674 5673 5671 5669 5667 5665 5663 5661 5660 5658
5715 5713 5711 5708 5708 5705 5701 5697 5696 5696 5696 5695 5693 5690 5688 5687 5684 5679 5675 5671 5669 5669 5669 5666 5666 5665 5666 5666 5666 5665 5664 5663 5661 5659 5657 5655 5654 5652
5709 5708 5707 5704 5702 5699 5695 5692 5689 5689 5689 5688 5686 5685 5683 5682 5680 5676 5672 5666 5663 5662 5663 5661 5660 5657 5656 5658 5658 5657 5656 5655 5654 5652 5651 5648 5646 5644
5703 5701 5700 5699 5696 5693 5691 5688 5686 5685 5682 5680 5678 5677 5676 5675 5674 5672 5670 5666 5661 5658 5659 5656 5653 5650 5648 5648 5649 5649 5648 5647 5646 5644 5643 5641 5640 5638
5698 5697 5695 5694 5691 5688 5686 5684 5682 5679 5675 5672 5670 5669 5668 5668 5667 5667 5665 5663 5660 5657 5656 5653 5649 5645 5642 5639 5639 5639 5639 5639 5638 5636 5635 5634 5632 5630
5694 5693 5690 5688 5685 5682 5680 5679 5676 5672 5669 5665 5663 5663 5663 5662 5661 5660 5658 5656 5654 5652 5650 5648 5645 5641 5638 5635 5632 5631 5630 5630 5629 5628 5627 5626 5625 5623
5687 5685 5683 5680 5678 5676 5673 5672 5669 5666 5663 5661 5660 5659 5657 5655 5654 5652 5649 5647 5644 5643 5643 5642 5640 5637 5633 5631 5628 5625 5624 5622 5621 5620 5619 5618 5617 5616
5679 5676 5673 5671 5669 5667 5665 5664 5662 5661 5658 5657 5654 5652 5650 5648 5646 5645 5643 5640 5636 5634 5633 5633 5632 5630 5628 5625 5621 5619 5617 5615 5614 5613 5611 5609 5609 5610
5671 5668 5666 5664 5662 5661 5659 5657 5656 5654 5653 5651 5648 5646 5643 5641 5639 5638 5635 5632 5629 5628 5626 5624 5623 5620 5618 5616 5616 5613 5610 5609 5608 5606 5604 5602 5602 5604
5664 5662 5660 5659 5657 5656 5654 5652 5650 5649 5647 5644 5642 5640 5638 5636 5633 5631 5628 5625 5623 5622 5621 5619 5616 5613 5609 5607 5608 5609 5605 5603 5601 5598 5597 5596 5596 5597
5658 5657 5656 5655 5653 5651 5649 5647 5645 5643 5640 5638 5636 5634 5632 5630 5627 5625 5622 5620 5618 5616 5614 5613 5611 5609 5606 5604 5602 5601 5601 5598 5595 5593 5591 5590 5590 5591
5654 5654 5652 5650 5648 5646 5644 5642 5640 5637 5635 5632 5630 5628 5626 5623 5621 5619 5617 5614 5612 5610 5608 5607 5607 5606 5603 5599 5596 5594 5594 5594 5592 5589 5587 5584 5583 5583
5650 5648 5647 5644 5642 5640 5638 5636 5634 5631 5629 5626 5624 5622 5620 5618 5616 5613 5611 5608 5605 5604 5603 5602 5601 5599 5596 5593 5591 5589 5587 5586 5585 5584 5583 5583 5580 5578
5644 5642 5640 5638 5636 5634 5632 5630 5628 5626 5623 5621 5618 5616 5614 5612 5610 5608 5605 5603 5600 5599 5597 5595 5594 5592 5591 5589 5585 5583 5582 5580 5578 5577 5576 5577 5577 5577